Retour au catalogue

LDPE-2

ActifScienceGEO
NORAD 54219·PAYLOAD·🇺🇸 United States

Lancé Nov 1, 2022 depuis Cape Canaveral Space Force Station

Loading…

TLE

FraisSource: Space-Track

Époque: Sep 14, 2026, 14:08 UTC

1 54219U 22144A   26257.58940108  .00000051  00000-0  00000-0 0  9997
2 54219   5.8118  62.7834 0000456 323.8996 251.1602  0.98886575 12737

Suivez LDPE-2 en temps réel avec AllMySat

Download on the App Store